OPS 4682 DEB, 15340

Orbit data source: Space-Track

OPS 4682 DEB, 15340 is space debris in LEO originally from a launch on Sat, 03 Apr 1965 UTC launched from the Air Force Western Test Range (AFWTR). Debris objects in space refer to the collection of defunct objects orbiting the Earth. Examples of debris include non-operational satellites, rocket bodies, and fragments generated from explosions, collisions, or faulty payload assembly.

Loading next visibility...
Identifier
15340, 1965-027R
Orbit
LEO
Country
Flag of USUS
Related business
Manufacturer
Unknown
Mission
Spacecraft
Bus & Motor
Unknown
Mass
Unknown
Launch date (UTC)
1965-04-03 (61 years ago)
Launch vehicle
Unknown
Launch site
Air Force Western Test Range (AFWTR)
Object type
Payload
Rocket body
Debris
Shape & HBR
Unknown shape, 0.1 m
Radar Cross Section
Medium (>0.1 m² and <1 m²)

Expand to show TLE details & history
Last TLE update: 13 hours ago

TLE from 13 hours ago
0 OPS 4682 DEB
1 15340U 65027R   26263.27448918  .00000449  00000-0  14795-2 0  9990
2 15340  90.2443   7.8201 0038258 135.1361 255.6549 12.99190832995879
Epoch: 2026-09-20T06:35Z
TLE epoch observation values (Epoch: 2026-09-20T06:35:15.865Z)
Latitude
30.41412°
Longitude
-90.30972°
Altitude
1,276.441 km
Speed
7.217 km/s
True Right ascension
00h 30m 42s
True Declination
30° 16' 28"
Sunlit
Object was in full shadow at epoch
Visualization orbit readout
Latitude
Unknown
Longitude
Unknown
Altitude
Unknown
Speed
Unknown
Apparent Right ascension
Unknown
Apparent Declination
Unknown
Sunlit
N/A
Visualization observer readout
Local Sidereal Time
12:57:10
Azimuth
Unknown
Elevation
Unknown
Doppler factor
Unknown
Orbital elements
Apogee altitude
1,291.618 km
Perigee altitude
1,233.156 km
Semi-major axis
7,640.524 km
Eccentricity
0.00383
Inclination
90.2443°
RAAN
7.8201°
Arg. of periapsis
135.1361°
True anomaly
255.23067°
Mean anomaly
255.6549°
Eccentric anomaly
255.44273°
Mean motion
3.24981 °/min
Orbital period
110.78 mins
BSTAR
0.0014795
Loading maneuver chart data...
Computing Atmospheric mass density...
Loading historical data...
Loading historical data...
Loading historical data...
Loading historical data...
Loading historical data...
Loading historical data...
Loading historical data...

Documentation

Showing up to 5 results
|